Cloud_Cover
100 100 19 80 100 100 100 100 100 100 100 100 100 100 100 100 100 100 100 100 100 100 100 100 100 100 100 97 84 52 92 56 100 74 56 100 74 86 80 69 9 5 5
100 87 90 99 100 100 99 68 64 52 100 95 100 100 100 100 100 100 100 100 100 100 100 100 100 100 100 52 40 84 46 100 39 60 26 95 92 55 100 46 5 5 41
100 100 100 99 58 90 79 49 100 89 98 100 100 100 100 100 100 100 100 100 100 100 100 100 100 100 100 78 98 62 100 100 92 69 96 82 58 81 96 5 38 100 100
100 100 100 100 100 76 23 33 100 100 99 94 99 100 100 97 100 100 100 100 100 100 100 97 100 100 100 99 80 71 100 99 100 98 100 95 100 77 85 44 75 73 92
100 100 100 100 100 100 67 82 100 100 100 72 100 100 100 100 100 100 100 100 100 100 100 81 100 100 100 96 87 99 100 100 92 98 99 100 100 100 99 71 99 87 92
86 100 100 100 100 100 100 89 100 100 100 100 100 100 100 100 100 100 100 100 100 100 84 100 100 100 100 91 100 100 100 100 62 100 100 100 100 100 100 100 100 100 100
97 100 95 100 100 100 100 100 100 100 100 100 100 100 100 100 100 100 100 100 100 100 100 100 100 100 99 100 100 100 100 83 98 100 100 100 100 100 100 100 100 100 100
100 100 100 100 100 100 100 100 100 100 100 100 100 100 100 100 100 100 100 100 100 100 100 100 100 100 100 100 100 100 100 100 100 100 96 100 100 100 100 100 100 100 100
100 100 100 100 100 100 100 100 100 100 100 100 100 100 100 100 100 100 100 100 100 100 100 100 100 98 100 100 100 100 79 100 100 100 100 100 100 100 100 96 100 100 100
100 100 100 100 100 100 100 100 100 100 100 100 100 100 100 100 100 100 100 100 100 100 100 100 100 91 100 100 100 100 100 100 100 99 100 65 100 86 6 83 100 100 100
100 100 100 100 100 100 100 100 100 100 100 100 100 100 100 100 100 100 100 100 100 100 100 100 100 100 100 100 100 100 100 100 100 100 100 100 95 29 5 15 100 100 100
100 100 100 100 100 100 100 100 100 100 100 100 100 100 100 100 100 100 100 100 100 100 100 100 100 100 100 100 100 100 100 100 100 100 99 92 93 47 5 29 100 100 100
100 100 100 100 100 100 100 100 100 100 100 100 100 100 100 100 100 100 100 100 100 100 100 100 100 100 100 100 100 100 100 100 100 100 100 93 80 65 5 53 100 100 88
100 100 100 100 100 100 100 100 100 100 100 100 100 100 100 100 100 100 100 100 100 100 100 100 100 100 100 100 100 100 100 100 100 98 100 100 83 57 16 45 82 74 79
100 100 100 100 100 100 100 100 100 100 100 100 100 100 100 100 100 100 100 100 100 100 100 100 100 100 100 100 100 100 100 100 100 87 100 100 100 100 75 15 100 96 99
100 100 100 100 100 100 100 100 100 100 100 100 100 100 100 100 100 100 100 100 100 100 100 100 100 100 100 100 100 100 100 100 98 100 100 100 100 100 100 42 33 76 100
100 100 100 100 100 100 100 100 100 100 100 100 100 100 100 100 100 100 100 100 100 100 100 100 100 100 100 100 100 100 100 100 100 100 100 100 100 100 100 100 100 100 100
100 100 100 100 100 100 100 100 100 100 100 100 100 100 100 100 100 100 100 100 100 100 100 100 100 100 100 100 100 100 100 100 100 100 100 100 100 100 100 100 98 100 73
100 100 100 100 100 100 100 100 100 100 100 100 100 100 100 100 100 100 100 100 100 100 100 100 100 100 100 100 100 100 100 100 90 77 100 100 100 100 100 100 100 88 54
100 100 100 100 100 100 100 100 100 100 100 100 100 100 100 100 100 100 100 100 100 100 100 100 100 100 100 100 100 100 100 100 86 84 100 100 100 100 100 100 100 90 98
100 100 100 100 100 100 100 100 100 100 100 100 100 100 100 100 100 100 100 100 100 100 100 100 100 100 100 100 100 100 99 100 100 85 98 100 100 100 100 100 87 96 99
100 100 100 100 100 100 100 100 100 100 100 100 100 100 100 100 100 100 100 100 100 100 100 100 100 100 97 100 100 100 98 44 97 96 60 98 100 100 100 100 93 95 82
100 100 100 100 100 100 100 100 100 100 100 100 100 100 100 100 100 100 100 100 100 100 100 100 100 97 74 57 60 18 76 17 33 78 75 65 75 100 100 100 100 100 96
100 100 100 100 100 100 100 100 100 100 100 100 100 100 100 100 100 100 100 100 100 100 100 100 99 100 100 100 61 5 5 54 66 81 94 100 74 38 100 100 100 100 100
100 100 100 100 100 100 100 100 100 100 100 100 100 100 100 100 100 100 100 100 100 100 100 100 100 100 100 95 36 5 45 14 72 71 57 85 98 30 89 100 100 100 100
100 100 100 100 100 100 100 100 100 100 100 100 100 100 100 100 100 100 100 97 95 86 99 100 90 98 98 42 6 50 22 15 5 23 54 55 98 73 41 97 100 100 99